Location: Pedimozza
(42.0500°N, 9.3500°E)
Time: 00:12:56
(UTC+00:00)

Cosmos 1975 Rocket - Pass Details

Date: 19 August 2019
Orbit: 605 x 633 km, 82.5° (Epoch: 20 September)

Event Time Altitude Azimuth Distance (km) Brightness Sun altitude
Rises 21:15:20 0° 350° (N) 2,906 7.5 -27.6°
Reaches altitude 10° 21:17:34 10° 349° (N) 1,999 6.5 -27.8°
Enters shadow 21:20:56 51° 337° (NNW) 793 3.8 -28.2°
